TimeEST,TemperatureF,Dew PointF,Humidity,Sea Level PressureIn,VisibilityMPH,Wind Direction,Wind SpeedMPH,Gust SpeedMPH,PrecipitationIn,Events,Conditions,WindDirDegrees,DateUTC
12:54 AM,24.1,23.0,96,29.78,-9999.0,North,-9999.0,-,N/A,,Unknown,0,2013-01-17 05:54:00
1:54 AM,23.0,21.0,92,29.78,-9999.0,North,-9999.0,-,N/A,,Unknown,0,2013-01-17 06:54:00
2:54 AM,23.0,21.9,96,29.78,-9999.0,North,-9999.0,-,N/A,,Unknown,0,2013-01-17 07:54:00
3:54 AM,25.0,23.0,92,29.78,-9999.0,North,-9999.0,-,N/A,,Unknown,0,2013-01-17 08:54:00
4:54 AM,25.0,23.0,92,29.77,-9999.0,North,-9999.0,-,N/A,,Unknown,0,2013-01-17 09:54:00
5:54 AM,26.1,24.1,92,29.79,-9999.0,North,-9999.0,-,N/A,,Unknown,0,2013-01-17 10:54:00
6:54 AM,27.0,25.0,92,29.80,-9999.0,North,-9999.0,-,N/A,,Unknown,0,2013-01-17 11:54:00
7:54 AM,28.0,25.0,88,29.83,-9999.0,North,-9999.0,-,N/A,,Unknown,0,2013-01-17 12:54:00
8:54 AM,28.0,26.1,92,29.86,-9999.0,North,-9999.0,-,N/A,,Unknown,0,2013-01-17 13:54:00
9:54 AM,28.9,25.0,85,29.91,-9999.0,North,-9999.0,-,0.01,,Unknown,0,2013-01-17 14:54:00
10:54 AM,25.0,14.0,63,29.97,-9999.0,North,-9999.0,-,0.01,,Unknown,0,2013-01-17 15:54:00
11:54 AM,21.9,3.9,46,30.01,-9999.0,North,-9999.0,-,N/A,,Unknown,0,2013-01-17 16:54:00
12:54 PM,19.9,-4.0,35,30.04,-9999.0,North,-9999.0,-,N/A,,Unknown,0,2013-01-17 17:54:00
1:54 PM,18.0,-9.0,30,30.06,-9999.0,North,-9999.0,-,N/A,,Unknown,0,2013-01-17 18:54:00
2:54 PM,17.1,-14.1,24,30.09,-9999.0,North,-9999.0,-,N/A,,Unknown,0,2013-01-17 19:54:00
3:54 PM,15.1,-11.0,31,30.10,-9999.0,North,-9999.0,-,N/A,,Unknown,0,2013-01-17 20:54:00
4:54 PM,12.9,-9.9,35,30.13,-9999.0,North,-9999.0,-,N/A,,Unknown,0,2013-01-17 21:54:00
5:54 PM,10.9,-9.9,39,30.15,-9999.0,North,-9999.0,-,N/A,,Unknown,0,2013-01-17 22:54:00
6:54 PM,10.9,-9.9,39,30.15,-9999.0,North,-9999.0,-,N/A,,Unknown,0,2013-01-17 23:54:00
7:54 PM,10.0,-8.0,44,30.17,-9999.0,North,-9999.0,-,N/A,,Unknown,0,2013-01-18 00:54:00
8:54 PM,9.0,-9.0,44,30.17,-9999.0,North,-9999.0,-,N/A,,Unknown,0,2013-01-18 01:54:00
9:54 PM,8.1,-8.0,48,30.16,-9999.0,North,-9999.0,-,N/A,,Unknown,0,2013-01-18 02:54:00
10:54 PM,7.0,-7.1,53,30.17,-9999.0,North,-9999.0,-,N/A,,Unknown,0,2013-01-18 03:54:00
11:54 PM,7.0,-6.0,55,30.17,-9999.0,North,-9999.0,-,N/A,,Unknown,0,2013-01-18 04:54:00